ACA926 KRDU-CYUL

Flight info

Callsign ACA926
Flight time 1h 40m
Altitude 39000
Route BEXGO5 BOUSY DCT GEARS DCT BBOBO Q22 LLUND DCT CAM DCT JASDU DCT PBERG CARTR5
Aircraft A20N/M-SDE2E3FGHIRWXY/LB1

Departure

Time 2026-05-07 00:36
Airport Raleigh-Durham International Airport (KRDU)

Arrival

Time 2026-05-07 02:16
Airport Montreal / Pierre Elliott Trudeau International Airport (CYUL)
Time Latitude Longitude Altitude Speed Heading
2026-05-06 23:34 35.87781 -78.79380 386 ft 0 kts 135°
2026-05-07 00:24 35.87788 -78.79388 386 ft 2 kts 132°
2026-05-07 00:24 35.87799 -78.79403 386 ft 2 kts 135°
2026-05-07 00:24 35.87810 -78.79418 386 ft 2 kts 110°
2026-05-07 00:24 35.87810 -78.79438 386 ft 2 kts 58°
2026-05-07 00:25 35.87801 -78.79453 385 ft 1 kts 48°
2026-05-07 00:25 35.87797 -78.79458 385 ft 0 kts 47°
2026-05-07 00:27 35.87803 -78.79451 386 ft 5 kts 41°
2026-05-07 00:28 35.87845 -78.79406 388 ft 14 kts 43°
2026-05-07 00:28 35.87935 -78.79290 390 ft 23 kts 40°
2026-05-07 00:28 35.88055 -78.79146 392 ft 25 kts 45°
2026-05-07 00:28 35.88177 -78.78996 391 ft 29 kts 45°
2026-05-07 00:29 35.88320 -78.78819 391 ft 24 kts 44°
2026-05-07 00:29 35.88438 -78.78672 396 ft 25 kts 46°
2026-05-07 00:30 35.88839 -78.78181 406 ft 30 kts 46°
2026-05-07 00:30 35.88913 -78.78086 407 ft 17 kts 46°
2026-05-07 00:30 35.88990 -78.77941 406 ft 22 kts 62°
2026-05-07 00:30 35.89092 -78.77784 409 ft 25 kts 44°
2026-05-07 00:31 35.89216 -78.77653 415 ft 18 kts
2026-05-07 00:31 35.89272 -78.77691 415 ft 0 kts 312°
2026-05-07 00:32 35.89281 -78.77703 414 ft 5 kts 314°
2026-05-07 00:32 35.89303 -78.77731 416 ft 0 kts 315°
2026-05-07 00:34 35.89305 -78.77733 416 ft 2 kts 315°
2026-05-07 00:34 35.89351 -78.77792 414 ft 14 kts 304°
2026-05-07 00:34 35.89336 -78.77871 414 ft 1 kts 227°
2026-05-07 00:34 35.89318 -78.77892 408 ft 0 kts 226°
2026-05-07 00:35 35.89261 -78.77962 411 ft 40 kts 224°
2026-05-07 00:35 35.88877 -78.78431 408 ft 111 kts 224°
2026-05-07 00:35 35.88200 -78.79265 398 ft 163 kts 225°
2026-05-07 00:36 35.87368 -78.80302 831 ft 172 kts 225°
2026-05-07 00:36 35.86558 -78.81306 1693 ft 163 kts 226°
2026-05-07 00:36 35.85754 -78.82266 2453 ft 164 kts 226°
2026-05-07 00:36 35.84921 -78.83269 3055 ft 172 kts 227°
2026-05-07 00:37 35.84122 -78.84399 3713 ft 178 kts 239°
2026-05-07 00:37 35.83634 -78.85807 4400 ft 186 kts 256°
2026-05-07 00:37 35.83599 -78.87496 4940 ft 208 kts 281°
2026-05-07 00:37 35.84307 -78.89139 5509 ft 236 kts 306°
2026-05-07 00:38 35.85508 -78.90666 6091 ft 258 kts 310°
2026-05-07 00:38 35.86716 -78.92107 6842 ft 266 kts 311°
2026-05-07 00:38 35.88251 -78.93425 7790 ft 276 kts 331°
2026-05-07 00:38 35.90158 -78.93943 8783 ft 288 kts 352°
2026-05-07 00:39 35.92200 -78.93537 9574 ft 309 kts 15°
2026-05-07 00:39 35.94058 -78.92158 10357 ft 325 kts 37°
2026-05-07 00:39 35.95575 -78.89977 10829 ft 349 kts 56°
2026-05-07 00:39 35.96801 -78.87283 11112 ft 373 kts 59°
2026-05-07 00:40 35.98138 -78.84476 11730 ft 381 kts 54°
2026-05-07 00:40 35.99650 -78.81777 12573 ft 383 kts 50°
2026-05-07 00:40 36.01293 -78.79172 13397 ft 386 kts 47°
2026-05-07 00:40 36.02987 -78.76655 14155 ft 389 kts 46°
2026-05-07 00:41 36.04784 -78.74056 14842 ft 395 kts 45°
2026-05-07 00:41 36.06562 -78.71502 15528 ft 399 kts 45°
2026-05-07 00:41 36.08411 -78.68844 16199 ft 405 kts 45°
2026-05-07 00:41 36.10250 -78.66190 16870 ft 410 kts 45°
2026-05-07 00:42 36.12118 -78.63488 17509 ft 415 kts 44°
2026-05-07 00:42 36.13998 -78.60764 18167 ft 420 kts 44°
2026-05-07 00:42 36.15882 -78.58031 18726 ft 424 kts 44°
2026-05-07 00:42 36.17808 -78.55235 19296 ft 428 kts 44°
2026-05-07 00:43 36.19749 -78.52414 19877 ft 432 kts 44°
2026-05-07 00:43 36.21712 -78.49561 20452 ft 436 kts 44°
2026-05-07 00:43 36.23683 -78.46694 21019 ft 441 kts 44°
2026-05-07 00:43 36.25667 -78.43805 21573 ft 445 kts 44°
2026-05-07 00:44 36.27793 -78.41041 22123 ft 443 kts 36°
2026-05-07 00:44 36.30195 -78.38667 22680 ft 442 kts 30°
2026-05-07 00:44 36.32679 -78.36378 23226 ft 447 kts 30°
2026-05-07 00:44 36.35178 -78.34058 23749 ft 451 kts 30°
2026-05-07 00:45 36.37695 -78.31712 24210 ft 454 kts 31°
2026-05-07 00:45 36.40228 -78.29349 24676 ft 458 kts 31°
2026-05-07 00:45 36.42780 -78.26967 25133 ft 461 kts 31°
2026-05-07 00:45 36.45362 -78.24557 25588 ft 464 kts 31°
2026-05-07 00:46 36.47948 -78.22141 26036 ft 468 kts 31°
2026-05-07 00:46 36.50556 -78.19704 26475 ft 471 kts 31°
2026-05-07 00:46 36.53187 -78.17233 26910 ft 474 kts 31°
2026-05-07 00:46 36.55830 -78.14742 27318 ft 478 kts 31°
2026-05-07 00:47 36.58490 -78.12230 27724 ft 481 kts 32°
2026-05-07 00:47 36.61167 -78.09701 28113 ft 485 kts 32°
2026-05-07 00:47 36.63866 -78.07150 28473 ft 488 kts 32°
2026-05-07 00:47 36.66574 -78.04589 28839 ft 491 kts 32°
2026-05-07 00:48 36.69303 -78.02005 29204 ft 494 kts 32°
2026-05-07 00:48 36.72050 -77.99402 29521 ft 498 kts 32°
2026-05-07 00:48 36.74786 -77.96808 29840 ft 501 kts 32°
2026-05-07 00:48 36.77588 -77.94148 30149 ft 504 kts 32°
2026-05-07 00:49 36.80327 -77.91338 30379 ft 512 kts 38°
2026-05-07 00:49 36.82798 -77.88101 30663 ft 521 kts 45°
2026-05-07 00:49 36.84957 -77.84491 30918 ft 528 kts 51°
2026-05-07 00:49 36.87066 -77.80684 31215 ft 530 kts 50°
2026-05-07 00:50 36.89171 -77.76913 31547 ft 531 kts 50°
2026-05-07 00:50 36.91261 -77.73170 31885 ft 532 kts 50°
2026-05-07 00:50 36.93373 -77.69381 32219 ft 534 kts 49°
2026-05-07 00:50 36.95502 -77.65554 32554 ft 534 kts 49°
2026-05-07 00:51 36.97623 -77.61734 32888 ft 535 kts 49°
2026-05-07 00:51 36.99748 -77.57900 33215 ft 536 kts 48°
2026-05-07 00:51 37.01873 -77.54064 33530 ft 537 kts 48°
2026-05-07 00:51 37.03282 -77.51518 33753 ft 537 kts 47°
2026-05-07 00:52 37.05404 -77.47679 34055 ft 537 kts 47°
2026-05-07 00:52 37.07545 -77.43846 34362 ft 533 kts 44°
2026-05-07 00:52 37.09982 -77.40455 34634 ft 517 kts 31°
2026-05-07 00:52 37.12768 -77.37757 34914 ft 497 kts 19°
2026-05-07 00:53 37.15788 -77.35824 35179 ft 475 kts
2026-05-07 00:53 37.18871 -77.34571 35466 ft 463 kts
2026-05-07 00:53 37.21980 -77.33494 35773 ft 461 kts
2026-05-07 00:53 37.25061 -77.32376 36071 ft 462 kts
2026-05-07 00:54 37.28138 -77.31163 36361 ft 463 kts
2026-05-07 00:54 37.31201 -77.29885 36611 ft 464 kts
2026-05-07 00:54 37.34255 -77.28572 36872 ft 464 kts
2026-05-07 00:54 37.37306 -77.27244 37127 ft 463 kts
2026-05-07 00:55 37.40358 -77.25910 37374 ft 462 kts
2026-05-07 00:55 37.43391 -77.24585 37606 ft 462 kts
2026-05-07 00:55 37.46426 -77.23258 37855 ft 461 kts
2026-05-07 00:55 37.49453 -77.21936 38068 ft 460 kts
2026-05-07 00:56 37.52482 -77.20612 38273 ft 460 kts
2026-05-07 00:56 37.55501 -77.19291 38491 ft 459 kts
2026-05-07 00:56 37.58522 -77.17969 38669 ft 459 kts
2026-05-07 00:56 37.61532 -77.16651 38809 ft 459 kts
2026-05-07 00:57 37.67564 -77.13981 38905 ft 463 kts
2026-05-07 00:57 37.70556 -77.12329 38910 ft 474 kts 11°
2026-05-07 00:57 37.73491 -77.10343 38913 ft 481 kts 14°
2026-05-07 00:58 37.79321 -77.06305 38914 ft 480 kts 14°
2026-05-07 00:58 37.85222 -77.02231 38917 ft 480 kts 14°
2026-05-07 00:59 37.93954 -76.96177 38917 ft 480 kts 14°
2026-05-07 01:00 37.99821 -76.92097 38914 ft 481 kts 14°
2026-05-07 01:00 38.05689 -76.88008 38906 ft 481 kts 14°
2026-05-07 01:01 38.11529 -76.83931 38902 ft 480 kts 14°
2026-05-07 01:01 38.17388 -76.79834 38884 ft 480 kts 14°
2026-05-07 01:02 38.23236 -76.75641 38885 ft 488 kts 18°
2026-05-07 01:02 38.26054 -76.73143 38888 ft 499 kts 24°
2026-05-07 01:02 38.28754 -76.70292 38888 ft 505 kts 27°
2026-05-07 01:03 38.34072 -76.64536 38890 ft 505 kts 26°
2026-05-07 01:03 38.39442 -76.58740 38894 ft 504 kts 26°
2026-05-07 01:04 38.44789 -76.52957 38882 ft 504 kts 26°
2026-05-07 01:04 38.50126 -76.47238 38880 ft 502 kts 26°
2026-05-07 01:05 38.55474 -76.41497 38878 ft 502 kts 26°
2026-05-07 01:05 38.60816 -76.35744 38881 ft 502 kts 26°
2026-05-07 01:06 38.66154 -76.29980 38886 ft 501 kts 26°
2026-05-07 01:06 38.71488 -76.24209 38896 ft 502 kts 26°
2026-05-07 01:07 38.76819 -76.18431 38899 ft 502 kts 26°
2026-05-07 01:07 38.82150 -76.12640 38903 ft 502 kts 26°
2026-05-07 01:08 38.87453 -76.06868 38905 ft 503 kts 26°
2026-05-07 01:08 38.92769 -76.01070 38904 ft 503 kts 26°
2026-05-07 01:09 38.98084 -75.95206 38892 ft 507 kts 28°
2026-05-07 01:09 39.03241 -75.89026 38895 ft 510 kts 29°
2026-05-07 01:10 39.08412 -75.82785 38882 ft 509 kts 29°
2026-05-07 01:10 39.13594 -75.76578 38880 ft 509 kts 29°
2026-05-07 01:11 39.18778 -75.70374 38875 ft 509 kts 29°
2026-05-07 01:11 39.23961 -75.64159 38874 ft 509 kts 29°
2026-05-07 01:12 39.29105 -75.57978 38873 ft 509 kts 29°
2026-05-07 01:12 39.34289 -75.51734 38873 ft 509 kts 29°
2026-05-07 01:13 39.39447 -75.45507 38865 ft 509 kts 29°
2026-05-07 01:13 39.44618 -75.39252 38878 ft 510 kts 29°
2026-05-07 01:14 39.49767 -75.33011 38882 ft 510 kts 29°
2026-05-07 01:14 39.54957 -75.26706 38879 ft 511 kts 29°
2026-05-07 01:15 39.60090 -75.20457 38873 ft 511 kts 29°
2026-05-07 01:15 39.65255 -75.14151 38597 ft 509 kts 28°
2026-05-07 01:15 39.67838 -75.10993 38002 ft 509 kts 28°
2026-05-07 01:16 39.70450 -75.07928 37205 ft 506 kts 26°
2026-05-07 01:16 39.73134 -75.04948 36332 ft 509 kts 26°
2026-05-07 01:16 39.75861 -75.01951 35497 ft 514 kts 27°
2026-05-07 01:16 39.78582 -74.98934 35079 ft 514 kts 27°
2026-05-07 01:17 39.81318 -74.95876 34923 ft 523 kts 28°
2026-05-07 01:17 39.86817 -74.89666 34880 ft 526 kts 28°
2026-05-07 01:18 39.92477 -74.83767 34879 ft 513 kts 21°
2026-05-07 01:18 39.98328 -74.78401 34881 ft 514 kts 21°
2026-05-07 01:19 40.04053 -74.72651 34864 ft 530 kts 31°
2026-05-07 01:19 40.06635 -74.69149 34869 ft 541 kts 37°
2026-05-07 01:19 40.09151 -74.65503 34871 ft 540 kts 36°
2026-05-07 01:20 40.14215 -74.58216 34872 ft 541 kts 36°
2026-05-07 01:20 40.19247 -74.50984 34867 ft 539 kts 34°
2026-05-07 01:20 40.21961 -74.47668 34872 ft 525 kts 26°
2026-05-07 01:21 40.24796 -74.44670 34870 ft 524 kts 26°
2026-05-07 01:21 40.30449 -74.38637 34872 ft 524 kts 26°
2026-05-07 01:22 40.36100 -74.32577 34870 ft 524 kts 26°
2026-05-07 01:22 40.41731 -74.26533 34864 ft 524 kts 26°
2026-05-07 01:23 40.47377 -74.20460 34863 ft 524 kts 26°
2026-05-07 01:23 40.52064 -74.15408 34865 ft 524 kts 26°
2026-05-07 01:24 40.56452 -74.10671 34861 ft 523 kts 26°
2026-05-07 01:24 40.61940 -74.04735 34870 ft 523 kts 26°
2026-05-07 01:25 40.67551 -73.98651 34872 ft 523 kts 27°
2026-05-07 01:25 40.73168 -73.92548 34851 ft 522 kts 27°
2026-05-07 01:26 40.78522 -73.86717 34854 ft 522 kts 27°
2026-05-07 01:26 40.84208 -73.80869 34843 ft 504 kts 17°
2026-05-07 01:26 40.87269 -73.78826 34838 ft 483 kts
2026-05-07 01:27 40.90408 -73.77507 34836 ft 463 kts 357°
2026-05-07 01:27 40.93213 -73.76863 34832 ft 451 kts 352°
2026-05-07 01:27 40.96331 -73.76257 34831 ft 452 kts 353°
2026-05-07 01:28 41.02512 -73.75026 34832 ft 452 kts 353°
2026-05-07 01:28 41.08741 -73.73777 34835 ft 452 kts 353°
2026-05-07 01:29 41.14971 -73.72527 34834 ft 453 kts 353°
2026-05-07 01:29 41.21204 -73.71275 34833 ft 453 kts 353°
2026-05-07 01:30 41.27453 -73.70018 34839 ft 454 kts 353°
2026-05-07 01:30 41.33525 -73.68794 34842 ft 455 kts 353°
2026-05-07 01:31 41.39921 -73.67501 34850 ft 456 kts 353°
2026-05-07 01:31 41.46181 -73.66234 34850 ft 457 kts 353°
2026-05-07 01:32 41.52478 -73.64956 34847 ft 457 kts 353°
2026-05-07 01:32 41.58782 -73.63674 34859 ft 458 kts 353°
2026-05-07 01:33 41.65079 -73.62389 34844 ft 456 kts 353°
2026-05-07 01:33 41.71317 -73.61117 34849 ft 457 kts 353°
2026-05-07 01:34 41.77597 -73.59834 34847 ft 456 kts 353°
2026-05-07 01:34 41.83886 -73.58544 34842 ft 457 kts 353°
2026-05-07 01:35 41.89133 -73.57469 34833 ft 458 kts 353°
2026-05-07 01:35 41.96506 -73.55950 34830 ft 458 kts 353°
2026-05-07 01:36 42.01748 -73.54869 34834 ft 458 kts 353°
2026-05-07 01:36 42.08056 -73.53568 34839 ft 459 kts 353°
2026-05-07 01:37 42.14373 -73.52262 34834 ft 459 kts 353°
2026-05-07 01:37 42.20693 -73.50952 34836 ft 460 kts 353°
2026-05-07 01:38 42.26907 -73.49662 34835 ft 461 kts 353°
2026-05-07 01:38 42.33224 -73.48348 34845 ft 461 kts 353°
2026-05-07 01:39 42.39576 -73.47024 34850 ft 462 kts 353°
2026-05-07 01:39 42.45940 -73.45694 34852 ft 464 kts 354°
2026-05-07 01:40 42.52327 -73.44357 34853 ft 465 kts 354°
2026-05-07 01:40 42.58680 -73.43023 34859 ft 465 kts 354°
2026-05-07 01:41 42.65054 -73.41683 34883 ft 466 kts 354°
2026-05-07 01:41 42.71488 -73.40327 34887 ft 467 kts 354°
2026-05-07 01:42 42.77919 -73.38969 34894 ft 467 kts 354°
2026-05-07 01:42 42.84348 -73.37610 34895 ft 468 kts 354°
2026-05-07 01:43 42.90794 -73.36245 34895 ft 469 kts 355°
2026-05-07 01:43 42.97242 -73.34906 34894 ft 465 kts 352°
2026-05-07 01:43 43.00421 -73.34628 34892 ft 453 kts 346°
2026-05-07 01:44 43.03528 -73.34776 34889 ft 444 kts 341°
2026-05-07 01:44 43.09673 -73.35342 34885 ft 445 kts 342°
2026-05-07 01:45 43.15828 -73.35879 34880 ft 446 kts 342°
2026-05-07 01:45 43.22020 -73.36430 34884 ft 446 kts 342°
2026-05-07 01:46 43.28262 -73.36991 34887 ft 447 kts 342°
2026-05-07 01:46 43.34430 -73.37547 34887 ft 448 kts 342°
2026-05-07 01:47 43.40677 -73.38111 34885 ft 449 kts 343°
2026-05-07 01:47 43.44751 -73.38480 34883 ft 450 kts 343°
2026-05-07 01:48 43.45646 -73.38561 34891 ft 450 kts 343°
2026-05-07 01:48 43.51908 -73.39128 34885 ft 451 kts 343°
2026-05-07 01:49 43.58147 -73.39695 34879 ft 452 kts 343°
2026-05-07 01:49 43.64385 -73.40263 34878 ft 453 kts 343°
2026-05-07 01:50 43.70687 -73.40838 34877 ft 454 kts 343°
2026-05-07 01:50 43.76986 -73.41524 34875 ft 453 kts 343°
2026-05-07 01:51 43.83240 -73.42260 34850 ft 454 kts 343°
2026-05-07 01:51 43.86307 -73.42615 34651 ft 455 kts 343°
2026-05-07 01:51 43.89457 -73.42975 34425 ft 454 kts 343°
2026-05-07 01:51 43.92593 -73.43332 34201 ft 454 kts 343°
2026-05-07 01:52 43.95756 -73.43695 33769 ft 456 kts 343°
2026-05-07 01:52 43.98943 -73.44066 32869 ft 461 kts 344°
2026-05-07 01:52 44.02166 -73.44446 31920 ft 466 kts 345°
2026-05-07 01:52 44.05383 -73.44817 31183 ft 466 kts 346°
2026-05-07 01:53 44.08601 -73.45184 30616 ft 461 kts 347°
2026-05-07 01:53 44.11635 -73.45530 30013 ft 459 kts 347°
2026-05-07 01:53 44.14798 -73.45893 29406 ft 454 kts 347°
2026-05-07 01:53 44.17931 -73.46250 28822 ft 449 kts 348°
2026-05-07 01:54 44.21020 -73.46603 28247 ft 444 kts 348°
2026-05-07 01:54 44.24095 -73.46956 27660 ft 440 kts 348°
2026-05-07 01:54 44.27129 -73.47306 27087 ft 436 kts 348°
2026-05-07 01:54 44.30145 -73.47654 26516 ft 433 kts 348°
2026-05-07 01:55 44.33071 -73.47993 25954 ft 430 kts 348°
2026-05-07 01:55 44.36043 -73.48338 25390 ft 428 kts 348°
2026-05-07 01:55 44.39010 -73.48684 24804 ft 427 kts 348°
2026-05-07 01:55 44.41962 -73.49025 24194 ft 426 kts 348°
2026-05-07 01:56 44.44924 -73.49370 23382 ft 430 kts 348°
2026-05-07 01:56 44.47940 -73.49723 22340 ft 437 kts 348°
2026-05-07 01:56 44.50996 -73.50079 21352 ft 442 kts 348°
2026-05-07 01:56 44.54053 -73.50429 20672 ft 438 kts 348°
2026-05-07 01:57 44.57078 -73.50773 20067 ft 433 kts 348°
2026-05-07 01:57 44.60058 -73.51113 19462 ft 427 kts 348°
2026-05-07 01:57 44.63002 -73.51452 18878 ft 422 kts 348°
2026-05-07 01:57 44.65912 -73.51789 18293 ft 418 kts 348°
2026-05-07 01:58 44.68791 -73.52123 17644 ft 412 kts 348°
2026-05-07 01:58 44.71640 -73.52459 16974 ft 408 kts 348°
2026-05-07 01:58 44.74448 -73.52794 16342 ft 403 kts 348°
2026-05-07 01:58 44.77228 -73.53127 15700 ft 398 kts 348°
2026-05-07 01:59 44.79920 -73.53448 14851 ft 390 kts 349°
2026-05-07 01:59 44.82605 -73.53770 13988 ft 385 kts 349°
2026-05-07 01:59 44.85258 -73.54089 13092 ft 379 kts 350°
2026-05-07 01:59 44.87871 -73.54395 12151 ft 374 kts 350°
2026-05-07 02:00 44.90448 -73.54679 11264 ft 369 kts 351°
2026-05-07 02:00 44.92988 -73.54954 10427 ft 364 kts 351°
2026-05-07 02:00 44.95451 -73.55216 10132 ft 344 kts 351°
2026-05-07 02:00 44.97762 -73.55459 9922 ft 323 kts 351°
2026-05-07 02:01 44.99927 -73.55689 9721 ft 304 kts 350°
2026-05-07 02:01 45.02006 -73.55919 9284 ft 296 kts 350°
2026-05-07 02:01 45.04042 -73.56151 8936 ft 291 kts 351°
2026-05-07 02:01 45.06034 -73.56376 8757 ft 282 kts 351°
2026-05-07 02:02 45.07987 -73.56595 8429 ft 282 kts 351°
2026-05-07 02:02 45.09938 -73.56816 8052 ft 281 kts 351°
2026-05-07 02:02 45.11876 -73.57032 7681 ft 278 kts 352°
2026-05-07 02:02 45.13796 -73.57245 7314 ft 275 kts 352°
2026-05-07 02:03 45.15697 -73.57456 6948 ft 273 kts 353°
2026-05-07 02:03 45.17566 -73.57663 6589 ft 270 kts 353°
2026-05-07 02:03 45.19409 -73.57868 6242 ft 268 kts 353°
2026-05-07 02:03 45.21208 -73.58066 5889 ft 264 kts 353°
2026-05-07 02:04 45.23039 -73.58267 5452 ft 265 kts 353°
2026-05-07 02:04 45.24878 -73.58470 4995 ft 266 kts 353°
2026-05-07 02:04 45.26720 -73.58674 4640 ft 263 kts 353°
2026-05-07 02:04 45.28491 -73.58867 4507 ft 251 kts 353°
2026-05-07 02:05 45.30191 -73.59051 4409 ft 239 kts 353°
2026-05-07 02:05 45.31810 -73.59225 4313 ft 228 kts 353°
2026-05-07 02:05 45.33366 -73.59392 4145 ft 220 kts 353°
2026-05-07 02:05 45.34788 -73.59545 3987 ft 212 kts 353°
2026-05-07 02:06 45.36223 -73.59701 3886 ft 211 kts 352°
2026-05-07 02:06 45.37725 -73.59871 3909 ft 216 kts 352°
2026-05-07 02:06 45.39317 -73.59796 3870 ft 248 kts 12°
2026-05-07 02:06 45.40884 -73.58674 3807 ft 255 kts 31°
2026-05-07 02:07 45.42339 -73.57249 3753 ft 255 kts 32°
2026-05-07 02:07 45.45247 -73.54348 3635 ft 253 kts 32°
2026-05-07 02:07 45.46672 -73.52951 3563 ft 244 kts 31°
2026-05-07 02:08 45.48052 -73.51610 3462 ft 234 kts 31°
2026-05-07 02:08 45.49382 -73.50326 3331 ft 228 kts 30°
2026-05-07 02:08 45.50712 -73.49048 3305 ft 234 kts 30°
2026-05-07 02:08 45.52067 -73.47745 3275 ft 232 kts 30°
2026-05-07 02:09 45.53413 -73.46448 3261 ft 233 kts 30°
2026-05-07 02:09 45.54748 -73.45164 3188 ft 227 kts 30°
2026-05-07 02:09 45.56034 -73.43918 3140 ft 221 kts 30°
2026-05-07 02:09 45.57226 -73.42535 3085 ft 225 kts 36°
2026-05-07 02:10 45.58604 -73.41596 3052 ft 215 kts
2026-05-07 02:10 45.60031 -73.41908 3016 ft 208 kts 329°
2026-05-07 02:10 45.61021 -73.43287 2992 ft 202 kts 294°
2026-05-07 02:10 45.61380 -73.45217 2985 ft 202 kts 278°
2026-05-07 02:11 45.61584 -73.47196 2988 ft 201 kts 280°
2026-05-07 02:11 45.61842 -73.49159 2978 ft 201 kts 270°
2026-05-07 02:11 45.61465 -73.51088 2981 ft 206 kts 247°
2026-05-07 02:11 45.60801 -73.52900 2985 ft 206 kts 243°
2026-05-07 02:12 45.60073 -73.54657 2983 ft 206 kts 241°
2026-05-07 02:12 45.59297 -73.56393 3038 ft 209 kts 240°
2026-05-07 02:12 45.58501 -73.58157 3489 ft 215 kts 240°
2026-05-07 02:12 45.57598 -73.60035 3517 ft 229 kts 236°
2026-05-07 02:13 45.56665 -73.61717 3321 ft 209 kts 233°
2026-05-07 02:13 45.55761 -73.63238 3009 ft 195 kts 231°
2026-05-07 02:13 45.54850 -73.64654 2507 ft 193 kts 230°
2026-05-07 02:13 45.53960 -73.66000 2078 ft 180 kts 229°
2026-05-07 02:14 45.53127 -73.67234 1726 ft 166 kts 228°
2026-05-07 02:14 45.52321 -73.68346 1409 ft 153 kts 225°
2026-05-07 02:14 45.51582 -73.69294 1143 ft 136 kts 225°
2026-05-07 02:14 45.50919 -73.70185 873 ft 126 kts 225°
2026-05-07 02:15 45.50323 -73.71030 687 ft 117 kts 224°
2026-05-07 02:15 45.49740 -73.71786 488 ft 109 kts 223°
2026-05-07 02:15 45.49175 -73.72504 411 ft 114 kts 223°
2026-05-07 02:15 45.48601 -73.73247 239 ft 110 kts 224°
2026-05-07 02:16 45.48072 -73.73941 118 ft 102 kts 222°
2026-05-07 02:16 45.47690 -73.74453 109 ft 52 kts 222°
2026-05-07 02:16 45.47448 -73.74753 112 ft 38 kts 212°
2026-05-07 02:16 45.47254 -73.74988 112 ft 37 kts 224°
2026-05-07 02:17 45.47039 -73.75287 107 ft 49 kts 224°
2026-05-07 02:17 45.46811 -73.75538 107 ft 17 kts 205°
2026-05-07 02:17 45.46690 -73.75599 111 ft 24 kts 197°
2026-05-07 02:17 45.46511 -73.75662 111 ft 23 kts 187°
2026-05-07 02:18 45.46479 -73.75606 109 ft 6 kts 63°
2026-05-07 02:18 45.46563 -73.75512 108 ft 25 kts 43°
2026-05-07 02:18 45.46650 -73.75283 106 ft 31 kts 89°
2026-05-07 02:18 45.46663 -73.74956 108 ft 35 kts 88°
2026-05-07 02:19 45.46673 -73.74597 111 ft 38 kts 86°
2026-05-07 02:19 45.46685 -73.74224 113 ft 25 kts 88°
2026-05-07 02:19 45.46659 -73.73994 114 ft 26 kts 116°
2026-05-07 02:19 45.46534 -73.73777 112 ft 28 kts 133°
2026-05-07 02:20 45.46469 -73.73636 112 ft 6 kts 65°
2026-05-07 02:20 45.46536 -73.73526 111 ft 24 kts 57°
2026-05-07 02:20 45.46603 -73.73260 110 ft 33 kts 71°
2026-05-07 02:20 45.46694 -73.72941 112 ft 36 kts 54°
2026-05-07 02:21 45.46878 -73.72712 118 ft 32 kts 12°
2026-05-07 02:21 45.47093 -73.72696 117 ft 32 kts 11°
2026-05-07 02:21 45.47285 -73.72557 118 ft 20 kts 32°
2026-05-07 02:21 45.47333 -73.72581 118 ft 10 kts 315°
2026-05-07 02:22 45.47377 -73.72639 119 ft 0 kts 314°